Location: Peebles
(55.6412°N, 3.1714°W)
Time: 02:01:54
(UTC+01:00)

FENGYUN 1C DEB - Pass Details

Date: 05 July 2022
Orbit: 835 x 1174 km, 99.6° (Epoch: 12 August)

Event Time Altitude Azimuth Distance (km) Brightness Sun altitude
Rises 23:09:30 0° 190° (S) 3,930 ? -7.1°
Reaches altitude 10° 23:12:22 10° 199° (SSW) 2,933 ? -7.3°
Maximum altitude 23:18:23 36° 264° (W) 1,589 ? -7.7°
Drops below altitude 10° 23:24:01 10° 330° (NNW) 2,737 ? -8.0°
Sets 23:26:38 0° 339° (NNW) 3,637 ? -8.2°
